Satellite-Ground Cal/Val Site Overpasses Predictions

Prediction of Satellite NPP Overpassing Cal/Val Site: Antarctic Dome C

Ground Cal/Val Site Location: Latitude: -75.10, Longitude: 123.35; Satellite-Ground Site NADIR distance within 100 km.

Table of predicted overpasses for the next 14.0 days since TLE Epoch: 12/24/2022
Interval Starting Time Ending Time Minimum Distance Time Minimum Distance (km)
1 12/24/2022 14:49:43 12/24/2022 14:50:12 12/24/2022 14:49:58 13.47
2 12/26/2022 07:32:35 12/26/2022 07:33:04 12/26/2022 07:32:49 3.99
3 12/29/2022 14:56:06 12/29/2022 14:56:35 12/29/2022 14:56:21 23.49
4 12/30/2022 14:37:24 12/30/2022 14:37:40 12/30/2022 14:37:32 83.57
5 12/31/2022 07:38:58 12/31/2022 07:39:26 12/31/2022 07:39:12 32.79
6 01/01/2023 07:20:14 01/01/2023 07:20:32 01/01/2023 07:20:23 77.22
7 01/03/2023 15:02:30 01/03/2023 15:02:54 01/03/2023 15:02:42 60.60
8 01/04/2023 14:43:41 01/04/2023 14:44:07 01/04/2023 14:43:54 48.45
9 01/05/2023 07:45:22 01/05/2023 07:45:43 01/05/2023 07:45:33 68.24
